Flag for Australia Weather past 2 weeks in Mildura, Victoria, Australia

Now
74 °F

Mild.


Feels Like: 77 °F
Forecast: 55 / 75 °F
Wind: 3 mph from East

Location: Mildura Airport

Current Time: Oct 26, 2014 at 8:41:10 PM

Latest Report: Oct 26, 2014 at 8:00 PM


Visibility: N/A

Pressure: 29.81 "Hg

Humidity: 55%

Dew point: 57 °F

Location of MilduraLocation

Historic Weather in Mildura — Graph

°F

Mildura temperature yesterday

Maximum temperature yesterday: 94 °F (at 4:00 PM)
Minimum temperature yesterday: 64 °F (at 7:00 AM)
Average temperature yesterday: 79 °F

Past Weeks' High & Low Weather Summary

 TemperatureHumidityPressure
High98 °F (Oct 22, 3:00 PM)92% (Oct 16, 7:00 AM)30.31 "Hg (Oct 16, 7:00 AM)
Low40 °F (Oct 15, 7:00 AM)3% (Oct 19, 4:00 PM)29.67 "Hg (Oct 12, 5:00 PM)
Average69 °F36%30.07 "Hg
* Reported Oct 11 7:00 PM — Oct 26 7:00 PM, Mildura, Weather by CustomWeather, © 2014

Note: Actual official high and low records may vary slightly from our data, if they occured in-between our weather recording intervals... More about our weather records

Advertising

Mildura weather history for previous 24 hours

 ConditionsComfort  
Time TempWeatherWind HumidityBarometerVisibility
7:00 PM
Oct 26
78 °FWarm.3 mph44%29.81 "HgN/A
6:00 PM78 °FOvercast.5 mph48%29.82 "HgN/A
5:00 PM76 °FMild.6 mph53%29.82 "HgN/A
4:00 PM75 °FMild.5 mph51%29.83 "HgN/A
3:00 PM73 °FDrizzle. Overcast.8 mph51%29.89 "Hg19 mi
2:00 PM74 °FMild.6 mph43%29.93 "HgN/A
1:00 PM74 °FMild.8 mph42%29.96 "HgN/A
12:00 PM77 °FPassing clouds.9 mph33%29.96 "HgN/A
11:00 AM78 °FPleasantly warm.12 mph35%29.99 "HgN/A
10:00 AM73 °FMild.1 mph45%29.94 "HgN/A
9:00 AM66 °FMild.3 mph57%29.94 "HgN/A
8:00 AM58 °FCool.5 mph72%29.94 "HgN/A
7:00 AM53 °FCool.No wind76%29.92 "HgN/A
6:00 AM56 °FCool.6 mph76%29.91 "HgN/A
5:00 AM58 °FCool.5 mph70%29.90 "HgN/A
4:00 AM60 °FCool.5 mph63%29.90 "HgN/A
3:00 AM62 °FRefreshingly cool.6 mph54%29.90 "HgN/A
2:00 AM65 °FMild.6 mph47%29.92 "HgN/A
1:00 AM68 °FMild.6 mph41%29.95 "HgN/A
12:00 AM70 °FMild.7 mph34%29.95 "HgN/A
11:00 PM
Oct 25
73 °FMild.8 mph31%29.94 "HgN/A
10:00 PM76 °FMild.7 mph27%29.94 "HgN/A
9:00 PM79 °FPleasantly warm.7 mph23%29.93 "HgN/A
8:00 PM84 °FPleasantly warm.9 mph19%29.90 "HgN/A
Weather by CustomWeather, © 2014

See weather overviewHow to use our weather pages